NOAA 16 DEB, 41076

Orbit data source: Space-Track

NOAA 16 DEB, 41076 is space debris in SSO originally from a launch on Thu, 21 Sep 2000 UTC launched from the Air Force Western Test Range (AFWTR). Debris objects in space refer to the collection of defunct objects orbiting the Earth. Examples of debris include non-operational satellites, rocket bodies, and fragments generated from explosions, collisions, or faulty payload assembly.

Loading next visibility...
NOAA 16 DEB details
Identifier
41076, 2000-055AK
Orbit
SSO
Last TLE update21 hours ago
Origin
Flag of USNOAA (US)
ManufacturerUnknown
MissionSpacecraft
Bus & MotorUnknown
MassUnknown
Launch date (UTC)
2000-09-21 (24 years ago)
Launch vehicleUnknown
Launch site
Air Force Western Test Range (AFWTR)
Object type
Payload
Rocket body
Debris
Shape & HBRUnknown
Radar Cross SectionSmall (<0.1 m²)

Expand to show TLE details & history

TLE from 21 hours ago
0 NOAA 16 DEB
1 41076U 00055AK  24360.58794172  .00049503  00000-0  40872-2 0  9990
2 41076  99.1714 120.8825 0119064 101.2003 260.2623 14.93362956484213
Epoch: 2024-12-25T14:06Z
Definitive object data (Epoch: 2024-12-25T14:06:38.164Z)
Latitude-0.00003°
Longitude174.64395°
Altitude605.445 km
Speed7.549 km/s
True Right ascension08h 03m 31s
True Declination0° 00' 00"
Sunlit
Object was in full shadow at TLE epoch
Visualization TLE readout
Latitude-73.47656°
Longitude-151.58437°
Altitude696.593 km
Speed7.462 km/s
Apparent Right ascension21h 49m 20s
Apparent Declination-75° 03' 25"
Sunlit
Object is in daylight
Visualization observer readout
Local Sidereal Time10:01:22
Azimuth178.654° S
Elevation-54.832°
Doppler factor1
Orbital elements
Apogee altitude667.443 km
Perigee altitude501.642 km
Semi-major axis6,962.68 km
Eccentricity0.0119064
Inclination99.1714°
RAAN120.8825°
Arg. of periapsis101.2003°
True anomaly258.92108°
Mean anomaly260.2623°
Eccentric anomaly259.59134°
Mean motion3.73576 °/min
BSTAR0.0040872
Orbital period96.37 mins
Loading maneuver chart data...
Loading historical data...
Loading historical data...
Loading historical data...
Loading historical data...
Loading historical data...
Loading historical data...
Loading historical data...

NOAA 16 DEB Visibility forecast

Observer location: undefined°, undefined

Span
Click to sort rows by Start time (UTC) header in descending order
Start Az.
Max El. time (UTC)
Max El. Az.
Max El.
End time (UTC)
End Az.
7 mins2024-12-26 21:13:09.193Z14.915° NNE2024-12-26 21:16:09.193Z23.095° NE43.635°2024-12-26 21:20:09.193Z194.325° SSW
6 mins2024-12-27 08:03:09.193Z153.507° SSE2024-12-27 08:06:09.193Z54.172° ENE42.386°2024-12-27 08:09:09.193Z352.768° N
|